Tracking 35334 objects as of 13-Sep-2026
HD Live streaming from Space Station
objects crossing your sky now

STARLINK-31412

Track STARLINK-31412 now!
10-day predictions
STARLINK-31412 is classified as:


NORAD ID: 59410
Int'l Code: 2024-064N
Launch date: April 5, 2024
Source: United States (US)
Launch site: AIR FORCE EASTERN TEST RANGE (AFETR)
Your satellite tracking list
Your tracking list is empty




NASA's NSSDC Master Catalog

Two Line Element Set (TLE):
1 59410U 24064N   26255.87448333  .00001752  00000-0  73186-4 0  9999
2 59410  43.0040  79.0203 0001259 317.1250  42.9503 15.27571287137851
Source of the keplerian elements: AFSPC